Date String (YYYY-MM-DD hh:mm:ss) UTC,Instrument flags,absolute air pressure of the measurement (hPa),sample flow rate (lpm),inlet stack bypass flow (lpm),air temperature of the measurement (°C),ambient temperature measured by the external sensor (°C),aerosol sample conditioner tube jacket temperature (°C),OPC LED temperature (°C),internal box temperature (°C),relative humidity of the measurement (%),span deviation,mass concentration of particles derived from Lorenz-Mie calculation of OPC scattering (μg/m³),mass concentration of particles derived from Lorenz-Mie calculation of OPC scattering (μg/m³),mass concentration of particles derived from Lorenz-Mie calculation of OPC scattering (μg/m³)
DateTimeUTC,F1_M11,P_M11,Q1_M11,Q2_M11,T1_M11,T2_M11,T3_M11,T4_M11,T5_M11,U1_M11,ZSPAN_M11,X2_M11,X0_M11,X1_M11
2024-04-10 13:00:00,SystemResetWarning,0829.9,5.00,000.00,024.1,023.3,000.0,032.7,025.9,013.2,0000.0,0001.52,0005.45,0000.77
2024-04-10 13:01:00,SystemResetWarning,0829.9,5.00,000.00,024.0,023.2,000.0,032.7,025.9,012.6,0000.0,0001.55,0005.38,0000.77
2024-04-10 13:02:00,SystemResetWarning,0830.0,5.00,000.00,024.0,023.2,000.0,032.6,025.9,012.4,0000.0,0001.53,0005.30,0000.76
2024-04-10 13:03:00,SystemResetWarning,0829.9,5.00,000.00,024.0,023.2,000.0,032.6,025.9,012.3,0000.0,0001.49,0004.56,0000.75
2024-04-10 13:04:00,SystemResetWarning,0829.9,5.00,000.00,024.0,023.2,000.0,032.6,025.9,012.4,0000.0,0001.43,0004.01,0000.74
2024-04-10 13:05:00,SystemResetWarning,0830.0,5.00,000.00,024.0,023.2,000.0,032.6,025.8,012.1,0000.0,0001.36,0003.78,0000.73
2024-04-10 13:06:00,SystemResetWarning,0829.9,5.01,000.00,024.0,023.2,000.0,032.6,025.8,012.0,0000.0,0001.37,0003.82,0000.73
2024-04-10 13:07:00,SystemResetWarning,0829.9,5.00,000.00,024.0,023.1,000.0,032.6,025.8,011.9,0000.0,0001.37,0003.88,0000.72
2024-04-10 13:08:00,SystemResetWarning,0829.9,5.00,000.00,024.0,023.1,000.0,032.6,025.8,011.9,0000.0,0001.37,0003.33,0000.71
2024-04-10 13:09:00,SystemResetWarning,0830.0,4.99,000.00,023.9,023.1,000.0,032.6,025.7,011.9,0000.0,0001.36,0003.17,0000.72
2024-04-10 13:10:00,SystemResetWarning,0830.0,4.99,000.00,023.9,023.1,000.0,032.6,025.7,011.9,0000.0,0001.36,0003.12,0000.72
2024-04-10 13:11:00,SystemResetWarning,0830.0,5.01,000.00,023.9,023.1,000.0,032.5,025.7,011.9,0000.0,0001.29,0002.89,0000.72
2024-04-10 13:12:00,SystemResetWarning,0830.0,5.01,000.00,023.9,023.1,000.0,032.5,025.7,012.0,0000.0,0001.29,0003.51,0000.71
2024-04-10 13:13:00,SystemResetWarning,0830.0,5.00,000.00,023.9,023.1,000.0,032.5,025.7,011.9,0000.0,0001.35,0004.01,0000.71
2024-04-10 13:14:00,SystemResetWarning,0830.0,5.00,000.00,023.9,023.1,000.0,032.5,025.7,012.0,0000.0,0001.36,0004.02,0000.71
2024-04-10 13:15:00,SystemResetWarning,0830.0,4.99,000.00,023.9,023.1,000.0,032.5,025.7,012.0,0000.0,0001.41,0004.15,0000.71
2024-04-10 13:16:00,SystemResetWarning,0830.0,5.00,000.00,023.9,023.1,000.0,032.5,025.7,011.7,0000.0,0001.48,0004.28,0000.72
2024-04-10 13:17:00,SystemResetWarning,0830.0,5.01,000.00,023.9,023.2,000.0,032.5,025.7,011.9,0000.0,0001.55,0004.45,0000.73
2024-04-10 13:18:00,SystemResetWarning,0830.0,5.01,000.00,023.9,023.2,000.0,032.5,025.7,012.0,0000.0,0001.53,0004.32,0000.73
2024-04-10 13:19:00,SystemResetWarning,0830.0,5.01,000.00,023.9,023.2,000.0,032.5,025.7,012.1,0000.0,0001.52,0004.27,0000.73
2024-04-10 13:20:00,SystemResetWarning,0830.0,5.00,000.00,023.9,023.2,000.0,032.5,025.7,012.2,0000.0,0001.52,0004.86,0000.72
2024-04-10 13:21:00,SystemResetWarning,0830.0,4.99,000.00,023.9,023.2,000.0,032.5,025.8,012.0,0000.0,0001.53,0005.03,0000.72
2024-04-10 13:22:00,SystemResetWarning,0830.0,4.99,000.00,023.9,023.2,000.0,032.5,025.8,011.9,0000.0,0001.54,0004.92,0000.72
2024-04-10 13:23:00,SystemResetWarning,0830.0,5.00,000.00,023.9,023.2,000.0,032.5,025.8,011.6,0000.0,0001.55,0004.19,0000.73
2024-04-10 13:24:00,SystemResetWarning,0830.0,5.01,000.00,023.9,023.2,000.0,032.5,025.7,011.7,0000.0,0001.50,0003.79,0000.72
2024-04-10 13:25:00,SystemResetWarning,0830.0,5.00,000.00,023.9,023.2,000.0,032.5,025.7,011.8,0000.0,0001.51,0003.77,0000.73
2024-04-10 13:26:00,SystemResetWarning,0830.0,5.00,000.00,023.9,023.2,000.0,032.4,025.7,011.6,0000.0,0001.47,0004.36,0000.72
2024-04-10 13:27:00,SystemResetWarning,0830.0,5.00,000.00,023.9,023.2,000.0,032.4,025.7,011.7,0000.0,0001.47,0004.47,0000.72
2024-04-10 13:28:00,SystemResetWarning,0830.0,5.00,000.00,023.9,023.2,000.0,032.4,025.7,011.6,0000.0,0001.42,0004.35,0000.72
2024-04-10 13:29:00,SystemResetWarning,0830.0,5.01,000.00,023.9,023.3,000.0,032.4,025.7,011.6,0000.0,0001.44,0004.44,0000.72
2024-04-10 13:30:00,SystemResetWarning,0830.0,5.01,000.00,023.9,023.3,000.0,032.4,025.7,011.7,0000.0,0001.48,0004.54,0000.73
2024-04-10 13:31:00,SystemResetWarning,0830.0,5.00,000.00,023.9,023.3,000.0,032.4,025.7,012.0,0000.0,0001.51,0004.04,0000.72
2024-04-10 13:32:00,SystemResetWarning,0830.0,4.99,000.00,023.9,023.3,000.0,032.4,025.8,011.9,0000.0,0001.55,0004.73,0000.72
2024-04-10 13:33:00,SystemResetWarning,0830.0,4.99,000.00,023.9,023.3,000.0,032.4,025.7,012.0,0000.0,0001.57,0005.17,0000.72
2024-04-10 13:34:00,SystemResetWarning,0830.0,4.99,000.00,023.9,023.3,000.0,032.4,025.8,011.8,0000.0,0001.58,0005.25,0000.71
2024-04-10 13:35:00,SystemResetWarning,0830.0,5.00,000.00,023.9,023.3,000.0,032.4,025.7,012.0,0000.0,0001.61,0005.31,0000.72
2024-04-10 13:36:00,SystemResetWarning,0830.0,5.01,000.00,023.9,023.3,000.0,032.4,025.8,012.1,0000.0,0001.59,0005.39,0000.72
2024-04-10 13:37:00,SystemResetWarning,0830.1,5.01,000.00,024.0,023.3,000.0,032.4,025.8,012.3,0000.0,0001.65,0004.90,0000.72
2024-04-10 13:38:00,SystemResetWarning,0830.0,4.99,000.00,024.0,023.3,000.0,032.4,025.8,012.3,0000.0,0001.63,0004.74,0000.71
2024-04-10 13:39:00,SystemResetWarning,0830.0,4.99,000.00,024.0,023.3,000.0,032.4,025.8,012.1,0000.0,0001.67,0004.85,0000.72
2024-04-10 13:40:00,SystemResetWarning,0830.0,4.99,000.00,024.0,023.3,000.0,032.4,025.8,012.1,0000.0,0001.69,0006.08,0000.72
2024-04-10 13:41:00,SystemResetWarning,0830.1,5.01,000.00,024.0,023.3,000.0,032.4,025.9,012.1,0000.0,0001.68,0006.28,0000.71
2024-04-10 13:42:00,SystemResetWarning,0830.1,5.00,000.00,024.0,023.3,000.0,032.4,025.8,012.5,0000.0,0001.67,0006.33,0000.70
2024-04-10 13:43:00,SystemResetWarning,0830.1,5.01,000.00,024.0,023.3,000.0,032.4,025.8,012.4,0000.0,0001.64,0005.77,0000.69
2024-04-10 13:44:00,SystemResetWarning,0830.1,4.99,000.00,024.0,023.3,000.0,032.4,025.8,012.0,0000.0,0001.63,0005.06,0000.69
2024-04-10 13:45:00,SystemResetWarning,0830.1,5.00,000.00,024.0,023.3,000.0,032.4,025.8,012.1,0000.0,0001.64,0005.03,0000.70
2024-04-10 13:46:00,SystemResetWarning,0830.1,4.99,000.00,024.0,023.3,000.0,032.4,025.8,012.4,0000.0,0001.62,0004.97,0000.71
2024-04-10 13:47:00,SystemResetWarning,0830.1,5.00,000.00,024.0,023.3,000.0,032.4,025.8,012.7,0000.0,0001.61,0004.88,0000.70
2024-04-10 13:48:00,SystemResetWarning,0830.1,4.99,000.00,024.0,023.3,000.0,032.5,025.8,012.6,0000.0,0001.59,0004.78,0000.71
2024-04-10 13:49:00,SystemResetWarning,0830.1,4.99,000.00,024.0,023.4,000.0,032.5,025.8,012.6,0000.0,0001.60,0004.82,0000.72
2024-04-10 13:50:00,SystemResetWarning,0830.1,5.00,000.00,024.0,023.3,000.0,032.5,025.8,012.5,0000.0,0001.64,0004.90,0000.72
2024-04-10 13:51:00,SystemResetWarning,0830.1,4.99,000.00,024.0,023.3,000.0,032.5,025.8,012.3,0000.0,0001.60,0003.62,0000.72
2024-04-10 13:52:00,SystemResetWarning,0830.1,5.00,000.00,024.0,023.4,000.0,032.5,025.9,012.2,0000.0,0001.63,0003.42,0000.73
2024-04-10 13:53:00,SystemResetWarning,0830.1,5.01,000.00,024.0,023.4,000.0,032.5,025.9,012.3,0000.0,0001.64,0003.33,0000.74
2024-04-10 13:54:00,SystemResetWarning,0830.1,5.01,000.00,024.0,023.4,000.0,032.5,025.9,012.3,0000.0,0001.62,0003.25,0000.74
2024-04-10 13:55:00,SystemResetWarning,0830.1,5.00,000.00,024.0,023.4,000.0,032.5,025.9,012.4,0000.0,0001.61,0003.39,0000.73
2024-04-10 13:56:00,SystemResetWarning,0830.1,4.99,000.00,024.0,023.4,000.0,032.5,025.9,012.5,0000.0,0001.63,0003.63,0000.73
2024-04-10 13:57:00,SystemResetWarning,0830.1,5.00,000.00,024.0,023.4,000.0,032.5,025.9,012.5,0000.0,0001.65,0004.22,0000.74
2024-04-10 13:58:00,SystemResetWarning,0830.1,5.00,000.00,024.0,023.4,000.0,032.5,025.9,012.7,0000.0,0001.63,0004.73,0000.74
2024-04-10 13:59:00,SystemResetWarning,0830.1,5.00,000.00,024.0,023.4,000.0,032.5,025.9,012.8,0000.0,0001.59,0004.77,0000.73
